When you browse on this site, cookies collect data to enhance your experience and personalize the content and advertising you see.
Visit our Privacy Policy to learn more. By continuing to use the site, you agree to this use of cookies and data.
EN

Hourly Weather Snizhne

Today, 8 July, Wednesday

Time Temperature Precipitation Wind Pressure Humidity
00:00 +27°C° 0 mm 1 mps 726 mmHg 43%
01:00 +26°C° 0.2 mm 2 mps 727 mmHg 47%
02:00 +25°C° 0.2 mm 2 mps 727 mmHg 51%
03:00 +24°C° 0.2 mm 2 mps 727 mmHg 56%
04:00 +24°C° 0.5 mm 2 mps 727 mmHg 59%
05:00 +24°C° 0.5 mm 2 mps 727 mmHg 62%
06:00 +22°C° 0.5 mm 3 mps 727 mmHg 65%
07:00 +25°C° 0.1 mm 3 mps 727 mmHg 62%
08:00 +26°C° 0.1 mm 3 mps 727 mmHg 59%
09:00 +28°C° 0.1 mm 3 mps 728 mmHg 56%
10:00 +28°C° 0.2 mm 3 mps 728 mmHg 57%
11:00 +28°C° 0.2 mm 3 mps 728 mmHg 58%
12:00 +28°C° 0.2 mm 3 mps 728 mmHg 58%
13:00 +29°C° 0.1 mm 3 mps 729 mmHg 54%
14:00 +30°C° 0.1 mm 2 mps 729 mmHg 49%
15:00 +32°C° 0.1 mm 2 mps 729 mmHg 45%
16:00 +31°C° 0.3 mm 2 mps 729 mmHg 48%
17:00 +30°C° 0.3 mm 3 mps 729 mmHg 51%
18:00 +30°C° 0.3 mm 4 mps 729 mmHg 54%
19:00 +27°C° 2 mm 4 mps 729 mmHg 66%
20:00 +25°C° 2 mm 4 mps 730 mmHg 77%
21:00 +21°C° 2 mm 4 mps 730 mmHg 89%
22:00 +20°C° 0.2 mm 5 mps 730 mmHg 89%
23:00 +20°C° 0.2 mm 5 mps 730 mmHg 89%

Tomorrow, 9 July, Thursday

Time Temperature Precipitation Wind Pressure Humidity
00:00 +19°C° 0.2 mm 6 mps 731 mmHg 89%
01:00 +17°C° 0 mm 5 mps 731 mmHg 89%
02:00 +17°C° 0 mm 5 mps 731 mmHg 89%
03:00 +17°C° 0 mm 4 mps 732 mmHg 89%
04:00 +17°C° 0 mm 4 mps 732 mmHg 88%
05:00 +16°C° 0 mm 5 mps 732 mmHg 87%
06:00 +15°C° 0 mm 5 mps 732 mmHg 86%
07:00 +16°C° 0 mm 5 mps 733 mmHg 81%
08:00 +17°C° 0 mm 5 mps 733 mmHg 77%
09:00 +19°C° 0 mm 5 mps 734 mmHg 72%
10:00 +21°C° 0 mm 6 mps 734 mmHg 67%
11:00 +22°C° 0 mm 6 mps 735 mmHg 62%
12:00 +23°C° 0 mm 6 mps 735 mmHg 57%
13:00 +24°C° 0 mm 6 mps 735 mmHg 55%
14:00 +24°C° 0 mm 6 mps 735 mmHg 52%
15:00 +26°C° 0 mm 6 mps 735 mmHg 49%
16:00 +24°C° 0 mm 6 mps 735 mmHg 49%
17:00 +24°C° 0 mm 6 mps 736 mmHg 49%
18:00 +25°C° 0 mm 5 mps 736 mmHg 50%
19:00 +22°C° 0 mm 5 mps 736 mmHg 55%
20:00 +21°C° 0 mm 4 mps 736 mmHg 59%
21:00 +19°C° 0 mm 3 mps 736 mmHg 64%
22:00 +18°C° 0 mm 3 mps 737 mmHg 66%
23:00 +18°C° 0 mm 3 mps 737 mmHg 67%

Day after tomorrow, 10 July, Friday

Time Temperature Precipitation Wind Pressure Humidity
00:00 +17°C° 0 mm 3 mps 737 mmHg 68%
01:00 +16°C° 0 mm 3 mps 737 mmHg 71%
02:00 +16°C° 0 mm 3 mps 737 mmHg 74%
03:00 +16°C° 0 mm 2 mps 737 mmHg 77%
04:00 +16°C° 0 mm 2 mps 738 mmHg 78%
05:00 +16°C° 0 mm 2 mps 738 mmHg 79%
06:00 +17°C° 0 mm 2 mps 738 mmHg 79%
07:00 +18°C° 0 mm 3 mps 739 mmHg 73%
08:00 +20°C° 0 mm 3 mps 739 mmHg 67%
09:00 +22°C° 0 mm 3 mps 739 mmHg 61%
10:00 +24°C° 0 mm 3 mps 739 mmHg 56%
11:00 +25°C° 0 mm 3 mps 739 mmHg 52%
12:00 +26°C° 0 mm 3 mps 739 mmHg 47%
13:00 +26°C° 0 mm 4 mps 739 mmHg 44%
14:00 +26°C° 0 mm 4 mps 739 mmHg 42%
15:00 +27°C° 0 mm 4 mps 739 mmHg 39%
16:00 +26°C° 0 mm 4 mps 739 mmHg 41%
17:00 +26°C° 0 mm 4 mps 739 mmHg 43%
18:00 +26°C° 0 mm 4 mps 739 mmHg 44%
19:00 +23°C° 0 mm 4 mps 739 mmHg 51%
20:00 +21°C° 0 mm 3 mps 739 mmHg 58%
21:00 +19°C° 0 mm 3 mps 739 mmHg 65%
22:00 +19°C° 0 mm 3 mps 739 mmHg 67%
23:00 +18°C° 0 mm 3 mps 739 mmHg 69%

11 July, Saturday

Time Temperature Precipitation Wind Pressure Humidity
00:00 +17°C° 0 mm 3 mps 739 mmHg 71%
01:00 +17°C° 0 mm 3 mps 739 mmHg 75%
02:00 +16°C° 0 mm 3 mps 739 mmHg 79%
03:00 +16°C° 0 mm 3 mps 739 mmHg 82%
04:00 +15°C° 0 mm 4 mps 740 mmHg 82%
05:00 +17°C° 0 mm 4 mps 740 mmHg 81%
06:00 +17°C° 0 mm 4 mps 740 mmHg 80%
07:00 +19°C° 0 mm 4 mps 740 mmHg 73%
08:00 +21°C° 0 mm 5 mps 740 mmHg 65%
09:00 +22°C° 0 mm 5 mps 740 mmHg 58%
10:00 +25°C° 0 mm 5 mps 740 mmHg 53%
11:00 +26°C° 0 mm 5 mps 740 mmHg 49%
12:00 +27°C° 0 mm 5 mps 740 mmHg 44%
13:00 +27°C° 0 mm 5 mps 740 mmHg 42%
14:00 +28°C° 0 mm 5 mps 740 mmHg 39%
15:00 +28°C° 0 mm 5 mps 739 mmHg 36%
16:00 +28°C° 0 mm 5 mps 739 mmHg 38%
17:00 +27°C° 0 mm 5 mps 739 mmHg 39%
18:00 +27°C° 0 mm 5 mps 739 mmHg 40%
19:00 +25°C° 0 mm 5 mps 739 mmHg 45%
20:00 +22°C° 0 mm 4 mps 739 mmHg 50%
21:00 +20°C° 0 mm 4 mps 738 mmHg 55%
22:00 +19°C° 0 mm 4 mps 738 mmHg 58%
23:00 +19°C° 0 mm 4 mps 738 mmHg 60%

12 July, Sunday

Time Temperature Precipitation Wind Pressure Humidity
00:00 +18°C° 0 mm 4 mps 738 mmHg 62%
01:00 +18°C° 0 mm 4 mps 738 mmHg 64%
02:00 +18°C° 0 mm 4 mps 737 mmHg 66%
03:00 +17°C° 0 mm 4 mps 737 mmHg 68%
04:00 +18°C° 0 mm 4 mps 737 mmHg 70%
05:00 +18°C° 0 mm 4 mps 737 mmHg 72%
06:00 +18°C° 0 mm 4 mps 737 mmHg 74%
07:00 +20°C° 0 mm 4 mps 737 mmHg 69%
08:00 +22°C° 0 mm 4 mps 737 mmHg 64%
09:00 +25°C° 0 mm 5 mps 737 mmHg 59%
10:00 +26°C° 0 mm 4 mps 737 mmHg 53%
11:00 +27°C° 0 mm 4 mps 736 mmHg 47%
12:00 +29°C° 0 mm 4 mps 736 mmHg 40%
13:00 +30°C° 0 mm 4 mps 736 mmHg 38%
14:00 +30°C° 0 mm 3 mps 736 mmHg 36%
15:00 +31°C° 0 mm 3 mps 735 mmHg 33%
16:00 +31°C° 0 mm 3 mps 735 mmHg 35%
17:00 +30°C° 0 mm 3 mps 735 mmHg 36%
18:00 +30°C° 0 mm 3 mps 734 mmHg 38%
19:00 +28°C° 0 mm 3 mps 734 mmHg 42%
20:00 +26°C° 0 mm 3 mps 734 mmHg 47%
21:00 +24°C° 0 mm 3 mps 734 mmHg 51%
22:00 +24°C° 0 mm 3 mps 734 mmHg 55%
23:00 +22°C° 0 mm 4 mps 734 mmHg 59%

13 July, Monday

Time Temperature Precipitation Wind Pressure Humidity
00:00 +22°C° 0 mm 4 mps 733 mmHg 63%
01:00 +21°C° 0 mm 3 mps 733 mmHg 65%
02:00 +21°C° 0 mm 3 mps 733 mmHg 66%
03:00 +20°C° 0 mm 3 mps 732 mmHg 68%
04:00 +20°C° 0 mm 3 mps 732 mmHg 70%
05:00 +20°C° 0 mm 3 mps 732 mmHg 71%
06:00 +21°C° 0 mm 2 mps 732 mmHg 72%
07:00 +22°C° 0 mm 3 mps 732 mmHg 69%
08:00 +25°C° 0 mm 3 mps 732 mmHg 65%
09:00 +27°C° 0 mm 4 mps 732 mmHg 61%
10:00 +28°C° 0.4 mm 3 mps 732 mmHg 56%
11:00 +29°C° 0.4 mm 3 mps 732 mmHg 50%
12:00 +31°C° 0.4 mm 3 mps 732 mmHg 44%
13:00 +30°C° 0.3 mm 3 mps 731 mmHg 47%
14:00 +29°C° 0.3 mm 3 mps 731 mmHg 50%
15:00 +29°C° 0.3 mm 3 mps 731 mmHg 53%
16:00 +27°C° 1.1 mm 3 mps 730 mmHg 59%
17:00 +26°C° 1.1 mm 3 mps 730 mmHg 65%
18:00 +25°C° 1.1 mm 3 mps 730 mmHg 71%
19:00 +24°C° 0.6 mm 3 mps 730 mmHg 74%
20:00 +22°C° 0.6 mm 3 mps 731 mmHg 76%
21:00 +21°C° 0.6 mm 2 mps 731 mmHg 79%
22:00 +21°C° 0.4 mm 2 mps 731 mmHg 81%
23:00 +20°C° 0.4 mm 2 mps 731 mmHg 82%
Show more